Location: G�rlitz
(51.1670°N, 15.0000°E)
Time: 15:49:39
(UTC+01:00)

Envisat - Visible Passes

Search period start: 15 February 2026 00:00
Search period end: 25 February 2026 00:00
Orbit: 761 x 763 km, 98.4° (Epoch: 14 February)

Date Brightness Start Highest point End Pass type
(mag) Time Alt. Az. Time Alt. Az. Time Alt. Az.
15 Feb 5.4 03:14:06 10° N 03:14:56 15° N 03:14:56 15° N visible
15 Feb 5.2 04:54:44 10° NNW 04:55:04 11° NNW 04:55:04 11° NNW visible
16 Feb 5.8 02:36:17 10° NNE 02:36:48 13° NNE 02:36:48 13° NNE visible
16 Feb 5.1 04:15:53 10° N 04:16:56 15° NNW 04:16:56 15° NNW visible
17 Feb 5.2 03:37:36 10° N 03:38:48 17° N 03:38:48 17° N visible
18 Feb 5.4 02:59:37 10° NNE 03:00:40 16° NNE 03:00:40 16° NNE visible
18 Feb 5.1 04:39:47 10° NNW 04:40:48 13° NNW 04:40:48 13° NNW visible
19 Feb 5.8 02:21:56 10° NNE 02:22:32 13° NNE 02:22:32 13° NNE visible
19 Feb 5.0 04:01:13 10° N 04:02:41 18° NNW 04:02:41 18° NNW visible
20 Feb 5.1 03:23:03 10° N 03:24:33 19° N 03:24:33 19° N visible
20 Feb 5.2 05:04:10 10° NNW 05:04:40 11° NNW 05:04:40 11° NNW visible
21 Feb 5.4 02:45:11 10° NNE 02:46:25 18° NNE 02:46:25 18° NNE visible
21 Feb 4.9 04:24:58 10° N 04:26:33 16° NNW 04:26:33 16° NNW visible
22 Feb 5.8 02:07:38 10° NNE 02:08:17 13° NNE 02:08:17 13° NNE visible
22 Feb 4.8 03:46:36 10° N 03:48:25 21° N 03:48:25 21° N visible
23 Feb 5.0 03:08:34 10° NNE 03:10:18 22° N 03:10:18 22° N visible
23 Feb 5.0 04:49:01 10° NNW 04:50:26 14° NW 04:50:26 14° NW visible
24 Feb 5.4 02:30:48 10° NNE 02:32:10 18° NNE 02:32:10 18° NNE visible
24 Feb 4.7 04:10:17 10° N 04:12:18 20° NNW 04:12:18 20° NNW visible
